Location: Wildlife_Club
(35.6000°N, 81.4330°W)
Time: 04:52:24
(UTC-04:00)

A-11 Canister half - Pass Details

Date: 16 August 2020
Orbit: 1514 x 1686 km, 47.2° (Epoch: 23 September)

Event Time Altitude Azimuth Distance (km) Brightness Sun altitude
Rises 01:06:42 0° 301° (WNW) 4,876 12.0 -40.5°
Reaches altitude 10° 01:10:00 10° 295° (WNW) 3,906 11.4 -40.6°
Enters shadow 01:15:30 32° 271° (W) 2,569 10.1 -40.7°
